Hourly Data Report for October 03, 2017

All times are specified in Local Standard Time (LST). Add 1 hour to adjust for Daylight Saving Time where and when it is observed.

SIOUX LOOKOUT A
ONTARIO

50°06'51.000" N
91°54'29.000" W
383.10 m
6037776
71842
YXL

Download Data

Hourly Data (October 2017)
Hourly Data Report for October 3, 2017
Temp Definition
°C
Dew Point Temp Definition
°C
Rel Hum Definition
%
Wind Dir Definition
10's deg

Wind Spd Definition
km/h
Visibility Definition
km
Stn Press Definition
kPa
Hmdx Definition


Wind Chill Definition


Weather Definition


TIME
00:00 Legend Double Dagger 12.2 11.9 99 17 7 24.1 96.87     Mostly Cloudy
01:00 Legend Double Dagger 11.6 11.4 99 36 3 24.1 96.88     LegendNANA
02:00 Legend Double Dagger 11.3 11.1 99 15 5 16.1 96.87     Fog
03:00 Legend Double Dagger 9.4 9.2 99 36 1 4.8 96.87     Fog
04:00 Legend Double Dagger 8.6 8.4 99 36 2 0.4 96.87     Fog
05:00 Legend Double Dagger 8.2 8.1 99 36 3 0.6 96.89     Fog
06:00 Legend Double Dagger 8.1 8.0 99 36 2 0.6 96.90     Fog
07:00 Legend Double Dagger 10.1 10.0 99 33 4 0.8 96.95     Fog
08:00 Legend Double Dagger 10.9 10.8 99 36 4 19.3 96.92     LegendNANA
09:00 Legend Double Dagger 11.2 11.1 99 36 7 19.3 97.00     Rain Showers
10:00 Legend Double Dagger 11.6 11.4 99 35 9 24.1 96.97     Rain
11:00 Legend Double Dagger 11.6 10.9 96 33 11 24.1 97.04     Rain
12:00 Legend Double Dagger 11.7 10.7 93 33 10 24.1 97.14     Rain Showers
13:00 Legend Double Dagger 11.8 10.5 91 33 11 24.1 97.08     LegendNANA
14:00 Legend Double Dagger 11.8 9.3 85 34 9 24.1 97.16     LegendNANA
15:00 Legend Double Dagger 9.6 7.5 86 32 24 24.1 97.24     Rain Showers
16:00 Legend Double Dagger 9.1 8.5 96 34 6 24.1 97.27     Rain Showers
17:00 Legend Double Dagger 9.0 8.0 94 29 4 24.1 97.35     Rain Showers
18:00 Legend Double Dagger 9.0 8.3 95 30 9 24.1 97.41     Rain Showers
19:00 Legend Double Dagger 8.6 7.9 95 32 7 24.1 97.43     Rain Showers
20:00 Legend Double Dagger 8.4 7.3 93 32 12 24.1 97.48     LegendNANA
21:00 Legend Double Dagger 7.9 6.5 91 32 11 24.1 97.52     Mostly Cloudy
22:00 Legend Double Dagger 5.3 4.9 98 30 7 24.1 97.55     LegendNANA
23:00 Legend Double Dagger 6.2 5.6 96 30 3 24.1 97.50     LegendNANA

Notes on Data Quality.

Legend

  • E = Estimated
  • M = Missing
  • NA = Not Available
  • ‡ = Partner data that is not subject to review by the National Climate Archives
Date modified: